| time (UTC) | temp F | wind direction | speed MPH | gust MPH | rain 1hr in | rain 24hr in | rain mn in | humidity % | barometer mb |
| 20260831114550 | 75 | 170 | 7.0 | 13.0 | 0.00 | 0.00 | 0.00 | 75 | 1011.8 |
| 20260831113052 | 75 | 127 | 6.0 | 11.0 | 0.00 | 0.00 | 0.00 | 74 | 1011.7 |
| 20260831111549 | 75 | 194 | 6.0 | 16.0 | 0.00 | 0.00 | 0.00 | 74 | 1011.8 |
| 20260831110044 | 76 | 172 | 7.0 | 13.0 | 0.00 | 0.00 | 0.00 | 74 | 1011.8 |
| 20260831104542 | 76 | 200 | 8.0 | 14.0 | 0.00 | 0.00 | 0.00 | 74 | 1011.8 |
| 20260831103042 | 76 | 175 | 6.0 | 10.0 | 0.00 | 0.00 | 0.00 | 73 | 1011.9 |
| 20260831101540 | 77 | 194 | 7.0 | 13.0 | 0.00 | 0.00 | 0.00 | 72 | 1011.9 |
| 20260831100038 | 77 | 212 | 6.0 | 15.0 | 0.00 | 0.00 | 0.00 | 71 | 1012.1 |
| 20260831094534 | 77 | 206 | 5.0 | 13.0 | 0.00 | 0.00 | 0.00 | 70 | 1011.9 |
| 20260831093033 | 77 | 209 | 8.0 | 13.0 | 0.00 | 0.00 | 0.00 | 70 | 1012.0 |
| 20260831091533 | 78 | 213 | 6.0 | 11.0 | 0.00 | 0.00 | 0.00 | 70 | 1011.9 |
| 20260831090028 | 78 | 172 | 7.0 | 15.0 | 0.00 | 0.00 | 0.00 | 69 | 1011.9 |
| 20260831084528 | 78 | 198 | 7.0 | 11.0 | 0.00 | 0.00 | 0.00 | 68 | 1011.8 |
| 20260831083027 | 78 | 201 | 7.0 | 14.0 | 0.00 | 0.00 | 0.00 | 67 | 1011.5 |
| 20260831081525 | 79 | 211 | 7.0 | 12.0 | 0.00 | 0.00 | 0.00 | 66 | 1011.6 |
| 20260831080019 | 79 | 173 | 8.0 | 15.0 | 0.00 | 0.00 | 0.00 | 64 | 1011.6 |
| 20260831074521 | 80 | 203 | 8.0 | 13.0 | 0.00 | 0.00 | 0.00 | 63 | 1011.6 |
| 20260831073016 | 80 | 182 | 6.0 | 14.0 | 0.00 | 0.00 | 0.00 | 62 | 1011.5 |
| 20260831071511 | 80 | 184 | 6.0 | 11.0 | 0.00 | 0.00 | 0.00 | 61 | 1011.5 |
| 20260831070010 | 80 | 164 | 3.0 | 9.0 | 0.00 | 0.00 | 0.00 | 60 | 1011.4 |
| 20260831064506 | 80 | 169 | 3.0 | 9.0 | 0.00 | 0.00 | 0.00 | 59 | 1011.4 |
| 20260831063003 | 81 | 154 | 5.0 | 10.0 | 0.00 | 0.00 | 0.00 | 58 | 1011.4 |
| 20260831061504 | 82 | 178 | 5.0 | 10.0 | 0.00 | 0.00 | 0.00 | 57 | 1011.4 |
| 20260831054557 | 83 | 171 | 5.0 | 12.0 | 0.00 | 0.00 | 0.00 | 55 | 1011.2 |
| 20260831053124 | 83 | 182 | 7.0 | 11.0 | 0.00 | 0.00 | 0.00 | 55 | 1011.2 |
| 20260831051602 | 83 | 161 | 5.0 | 11.0 | 0.00 | 0.00 | 0.00 | 55 | 1011.1 |
| 20260831050051 | 84 | 163 | 6.0 | 11.0 | 0.00 | 0.00 | 0.00 | 54 | 1011.1 |
| 20260831044549 | 84 | 175 | 6.0 | 12.0 | 0.00 | 0.00 | 0.00 | 54 | 1011.0 |
| 20260831043051 | 84 | 156 | 5.0 | 11.0 | 0.00 | 0.00 | 0.00 | 54 | 1011.1 |
| 20260831041548 | 85 | 148 | 4.0 | 14.0 | 0.00 | 0.00 | 0.00 | 53 | 1010.9 |
| 20260831040050 | 85 | 196 | 5.0 | 9.0 | 0.00 | 0.00 | 0.00 | 52 | 1010.9 |
| 20260831034551 | 86 | 127 | 6.0 | 10.0 | 0.00 | 0.00 | 0.00 | 51 | 1010.8 |
| 20260831033103 | 86 | 215 | 5.0 | 14.0 | 0.00 | 0.00 | 0.00 | 49 | 1010.6 |
| 20260831031547 | 86 | 196 | 6.0 | 10.0 | 0.00 | 0.00 | 0.00 | 48 | 1010.5 |
| 20260831030045 | 85 | 192 | 6.0 | 11.0 | 0.00 | 0.00 | 0.00 | 47 | 1010.3 |
| 20260831024545 | 85 | 145 | 4.0 | 9.0 | 0.00 | 0.00 | 0.00 | 46 | 1010.0 |
| 20260831023045 | 85 | 177 | 3.0 | 7.0 | 0.00 | 0.00 | 0.00 | 44 | 1009.7 |
| 20260831021543 | 86 | 175 | 2.0 | 5.0 | 0.00 | 0.00 | 0.00 | 43 | 1009.6 |
| 20260831020057 | 88 | 148 | 3.0 | 6.0 | 0.00 | 0.00 | 0.00 | 41 | 1009.5 |
| 20260831014542 | 89 | 151 | 2.0 | 5.0 | 0.00 | 0.00 | 0.00 | 39 | 1009.2 |
| 20260831013043 | 90 | 150 | 1.0 | 5.0 | 0.00 | 0.00 | 0.00 | 37 | 1009.0 |
| 20260831011544 | 92 | 155 | 2.0 | 6.0 | 0.00 | 0.00 | 0.00 | 36 | 1009.0 |
| 20260831010040 | 93 | 166 | 4.0 | 8.0 | 0.00 | 0.00 | 0.00 | 35 | 1008.9 |
| 20260831004542 | 94 | 169 | 4.0 | 11.0 | 0.00 | 0.00 | 0.00 | 35 | 1008.7 |
| 20260831003040 | 94 | 215 | 5.0 | 10.0 | 0.00 | 0.00 | 0.00 | 34 | 1008.7 |
| 20260831001539 | 95 | 150 | 4.0 | 12.0 | 0.00 | 0.00 | 0.00 | 34 | 1008.6 |
| 20260831000043 | 96 | 169 | 4.0 | 10.0 | 0.00 | 0.00 | 0.00 | 33 | 1008.6 |
| 20260830234539 | 96 | 151 | 4.0 | 9.0 | 0.00 | 0.00 | 0.00 | 32 | 1008.5 |
| 20260830233044 | 97 | 162 | 8.0 | 13.0 | 0.00 | 0.00 | 0.00 | 31 | 1008.6 |
| 20260830231538 | 97 | 161 | 2.0 | 7.0 | 0.00 | 0.00 | 0.00 | 33 | 1008.7 |
| 20260830230036 | 97 | 151 | 6.0 | 10.0 | 0.00 | 0.00 | 0.00 | 32 | 1008.6 |
| 20260830224534 | 97 | 133 | 6.0 | 11.0 | 0.00 | 0.00 | 0.00 | 32 | 1008.7 |
| 20260830223032 | 96 | 154 | 6.0 | 15.0 | 0.00 | 0.00 | 0.00 | 35 | 1008.8 |
| 20260830221538 | 95 | 135 | 3.0 | 8.0 | 0.00 | 0.00 | 0.00 | 35 | 1008.9 |
| 20260830220031 | 96 | 148 | 5.0 | 12.0 | 0.00 | 0.00 | 0.00 | 35 | 1009.0 |
| 20260830214530 | 96 | 150 | 1.0 | 9.0 | 0.00 | 0.00 | 0.00 | 36 | 1009.0 |
| 20260830213035 | 96 | 121 | 3.0 | 7.0 | 0.00 | 0.00 | 0.00 | 35 | 1009.2 |
| 20260830211529 | 96 | 222 | 4.0 | 12.0 | 0.00 | 0.00 | 0.00 | 36 | 1009.3 |
| 20260830210026 | 96 | 188 | 1.0 | 9.0 | 0.00 | 0.00 | 0.00 | 37 | 1009.5 |
| 20260830204525 | 95 | 179 | 5.0 | 10.0 | 0.00 | 0.00 | 0.00 | 37 | 1010.0 |
| 20260830203021 | 95 | 165 | 3.0 | 9.0 | 0.00 | 0.00 | 0.00 | 36 | 1010.1 |
| 20260830201518 | 95 | 128 | 6.0 | 12.0 | 0.00 | 0.00 | 0.00 | 36 | 1010.6 |
| 20260830200017 | 96 | 194 | 2.0 | 10.0 | 0.00 | 0.00 | 0.00 | 39 | 1010.7 |
| 20260830194515 | 96 | 76 | 4.0 | 8.0 | 0.00 | 0.00 | 0.00 | 37 | 1010.9 |
| 20260830193012 | 95 | 158 | 3.0 | 9.0 | 0.00 | 0.00 | 0.00 | 38 | 1011.1 |
| 20260830191514 | 95 | 71 | 3.0 | 12.0 | 0.00 | 0.00 | 0.00 | 39 | 1011.2 |
| 20260830190009 | 96 | 219 | 4.0 | 10.0 | 0.00 | 0.00 | 0.00 | 38 | 1011.4 |
| 20260830184509 | 94 | 234 | 6.0 | 11.0 | 0.00 | 0.00 | 0.00 | 40 | 1011.7 |
| 20260830183004 | 94 | 207 | 4.0 | 9.0 | 0.00 | 0.00 | 0.00 | 43 | 1011.9 |
| 20260830181502 | 94 | 122 | 2.0 | 11.0 | 0.00 | 0.00 | 0.00 | 43 | 1012.3 |
| 20260830180110 | 93 | 229 | 3.0 | 10.0 | 0.00 | 0.00 | 0.00 | 44 | 1012.4 |
| 20260830174608 | 92 | 183 | 5.0 | 15.0 | 0.00 | 0.00 | 0.00 | 47 | 1012.6 |
| 20260830173115 | 92 | 184 | 7.0 | 12.0 | 0.00 | 0.00 | 0.00 | 47 | 1013.0 |
| 20260830171557 | 92 | 219 | 7.0 | 10.0 | 0.00 | 0.00 | 0.00 | 49 | 1013.2 |
| 20260830170050 | 91 | 192 | 4.0 | 11.0 | 0.00 | 0.00 | 0.00 | 52 | 1013.3 |
| 20260830164546 | 90 | 205 | 4.0 | 13.0 | 0.00 | 0.00 | 0.00 | 55 | 1013.4 |
| 20260830163044 | 89 | 180 | 6.0 | 12.0 | 0.00 | 0.00 | 0.00 | 56 | 1013.4 |
| 20260830161601 | 88 | 213 | 8.0 | 13.0 | 0.00 | 0.00 | 0.00 | 57 | 1013.4 |
| 20260830160039 | 87 | 215 | 7.0 | 15.0 | 0.00 | 0.00 | 0.00 | 59 | 1013.5 |
| 20260830154536 | 86 | 182 | 8.0 | 13.0 | 0.00 | 0.00 | 0.00 | 61 | 1013.7 |
| 20260830153032 | 85 | 208 | 5.0 | 14.0 | 0.00 | 0.00 | 0.00 | 64 | 1013.7 |
| 20260830151528 | 84 | 236 | 6.0 | 13.0 | 0.00 | 0.00 | 0.00 | 67 | 1013.6 |
| 20260830150027 | 82 | 208 | 5.0 | 15.0 | 0.00 | 0.00 | 0.00 | 69 | 1013.6 |
| 20260830144526 | 81 | 209 | 6.0 | 13.0 | 0.00 | 0.00 | 0.00 | 71 | 1013.7 |
| 20260830143024 | 80 | 227 | 7.0 | 11.0 | 0.00 | 0.00 | 0.00 | 73 | 1013.9 |
| 20260830141524 | 79 | 216 | 5.0 | 10.0 | 0.00 | 0.00 | 0.00 | 74 | 1013.9 |
| 20260830140027 | 78 | 227 | 5.0 | 12.0 | 0.00 | 0.00 | 0.00 | 75 | 1013.7 |
| 20260830134521 | 78 | 214 | 6.0 | 12.0 | 0.00 | 0.00 | 0.00 | 76 | 1013.5 |
| 20260830133029 | 77 | 214 | 5.0 | 10.0 | 0.00 | 0.00 | 0.00 | 78 | 1013.5 |
| 20260830131518 | 76 | 198 | 5.0 | 9.0 | 0.00 | 0.00 | 0.00 | 79 | 1013.3 |
| 20260830130018 | 75 | 197 | 5.0 | 11.0 | 0.00 | 0.00 | 0.00 | 80 | 1013.2 |
| 20260830124530 | 74 | 197 | 3.0 | 7.0 | 0.00 | 0.00 | 0.00 | 80 | 1013.3 |
| 20260830123016 | 74 | 215 | 3.0 | 7.0 | 0.00 | 0.00 | 0.00 | 80 | 1013.2 |
| 20260830121513 | 74 | 204 | 3.0 | 6.0 | 0.00 | 0.00 | 0.00 | 79 | 1013.1 |
| 20260830120011 | 74 | 216 | 2.0 | 6.0 | 0.00 | 0.00 | 0.00 | 78 | 1013.0 |